P/1994 A1 ( Kushida ) 2009

Japanese version
Home page
Total 6,336 html files since Dec. 4, 1995
Updated on July 15, 2008

---------------------------------------------------------------------

* Profile

* Orbital Elements

Epoch 2009 Jan. 9.0 TT = JDT 2454840.5
T 2009 Jan. 26.85516 TT                                 MPC
q   1.4389476            (2000.0)            P               Q
n   0.12964580     Peri.  216.09374     -0.20071096     -0.97747582
a   3.8663136      Node   245.56545     +0.91476860     -0.16316963
e   0.6278244      Incl.    4.10917     +0.35059025     -0.13385329
P   7.60

* Finding Charts

* Magnitudes Graph

        m1 = 7.0 + 5 log d + 25.0 log r

---------------------------------------------------------------------

The orbital elements are published on M.P.E.C. 2008-N20.
The charts are made with StellaNavigator Ver.2.0 for Windows (AstroArts / ASCII).
The magnitudes graphs are made with Comet for Windows.

---------------------------------------------------------------------

Copyright(C) 1995-2008 Seiichi Yoshida (comet@aerith.net). All rights reserved.